Location: Unspecified
(0.0000°N, 0.0000°E)
Time: 07:23:27
(UTC+02:00)

Milstar 3 - Visible Passes

Search period start: 25 June 2017 00:00
Search period end: 05 July 2017 00:00
Orbit: 1097 x 5148 km, 28.2° (Epoch: 25 April)

Date Brightness Start Highest point End Pass type
(mag) Time Alt. Az. Time Alt. Az. Time Alt. Az.
25 Jun 5.8 02:54:33 11° NE 02:54:33 11° NE 02:54:43 10° NE visible
25 Jun 5.3 05:28:07 12° NW 05:33:43 19° N 05:43:13 10° NE visible
25 Jun 5.2 22:53:29 10° SW 22:55:30 15° SSW 22:55:30 15° SSW visible
26 Jun 5.0 04:30:10 21° NNW 04:30:15 21° NNW 04:38:13 10° NE visible
26 Jun 5.9 07:11:39 10° NNW 07:21:34 22° NNE 07:37:02 10° ENE visible
26 Jun 4.7 21:50:05 10° SSW 21:57:52 20° S 21:57:52 20° S visible
27 Jun 5.4 03:32:14 17° NNE 03:32:14 17° NNE 03:34:55 10° NE visible
27 Jun 5.6 06:09:38 10° NNW 06:16:43 18° N 06:26:53 10° NE visible
27 Jun 4.9 20:44:53 10° SW 20:54:26 19° S 21:00:16 12° SE visible
27 Jun 5.5 23:33:40 10° SW 23:33:53 11° SW 23:33:53 11° SW visible
28 Jun 5.4 05:07:52 11° NNW 05:12:36 16° N 05:19:35 10° NNE visible
28 Jun 4.7 22:30:43 10° SW 22:36:19 25° SSW 22:36:19 25° SSW visible
29 Jun 5.3 04:09:55 16° N 04:09:55 16° N 04:15:02 10° NNE visible
29 Jun 5.9 06:51:07 10° NNW 07:00:01 20° NNE 07:13:31 10° ENE visible
29 Jun 4.4 21:26:44 10° SW 21:36:52 25° SSE 21:38:47 24° SSE visible
30 Jun 5.7 03:12:00 11° NNE 03:12:00 11° NNE 03:12:20 10° NNE visible
30 Jun 5.7 05:49:39 10° NNW 05:55:29 15° N 06:03:21 10° NE visible
30 Jun 4.9 20:21:06 10° SW 20:33:14 23° S 20:40:59 10° SE visible
30 Jun 4.9 23:11:18 10° SW 23:14:54 22° SW 23:14:54 22° SW visible
01 Jul 5.4 04:47:50 10° NNW 04:51:32 13° N 04:55:58 10° NNE visible
01 Jul 6.0 07:31:37 10° NNW 07:43:05 27° NNE 08:01:54 10° ENE visible
01 Jul 4.1 22:07:45 10° SW 22:17:26 37° S 22:17:26 37° S visible
02 Jul 5.5 03:49:43 12° N 03:49:43 12° N 03:51:47 10° NNE visible
02 Jul 5.8 06:30:33 10° NNW 06:38:30 19° NNE 06:50:14 10° ENE visible
02 Jul 4.3 21:03:11 10° SW 21:15:41 31° SSE 21:20:00 22° SE visible
02 Jul 5.4 23:52:16 10° WSW 23:53:37 14° WSW 23:53:37 14° WSW visible
03 Jul 5.7 05:29:46 10° NNW 05:34:18 13° NNE 05:40:00 10° NE visible
03 Jul 4.1 22:48:44 10° SW 22:56:13 42° SW 22:56:13 42° SW visible
04 Jul 5.5 04:29:45 10° N 04:30:29 10° N 04:31:15 10° N visible
04 Jul 5.9 07:10:33 10° NNW 07:21:06 26° NNE 07:38:29 10° ENE visible
04 Jul 3.6 21:44:34 10° SW 21:57:19 47° SSE 21:58:51 44° SE visible
